Location: Unspecified
(0.0000°N, 0.0000°E)
Time: 18:59:39
(UTC+00:00)

Courier 1B Rocket - Pass Details

Date: 26 November 2019
Orbit: 920 x 1202 km, 28.2° (Epoch: 08 December)

Event Time Altitude Azimuth Distance (km) Brightness Sun altitude
Rises 20:35:02 0° 290° (WNW) 4,026 8.7 -38.6°
Reaches altitude 10° 20:37:53 10° 286° (WNW) 3,090 8.0 -39.2°
Enters shadow 20:43:44 47° 250° (WSW) 1,536 6.2 -40.5°
